M I D A S
Marine Information and Data Acquisition System
Tripno 1732 of the Zeeleeuw from 2009-07-08 06:33:02 to 2009-07-08 17:29:49
Back to CruiseResearch ActivitiesStationsMapUnderway DataData graphs

EquipmentUnitsComments
TimeDGPSUTC
LatitudeDGPSDM.mWGS84
LongitudeDGPSDM.mWGS84
SpeedMeteo Stationm/sRelative wind speed
DirectionMeteo StationdegRelative wind direction
TemperatureMeteo Stationdeg CelciusAir temperature
PressureMeteo StationPaAtmospheric pressure
HumidityMeteo Station%Relative humidity
Missing or incorrect values are displayed as -999
Metereological data collected by the RV Zeeleeuw from 2009-07-08 06:36:07 to 2009-07-08 17:39:20
Time Latitude Longitude Speed Direction Temperature Pressure Humidity
2009-07-08 06:37 51°13.679 2°55.894 5.7 35 16.2 100810 71
2009-07-08 06:38 51°13.694 2°55.804 6.7 39 16.3 100810 70
2009-07-08 06:39 51°13.704 2°55.764 3 36 16.2 100810 69
2009-07-08 06:40 51°13.699 2°55.742 4.2 265 16.2 100810 69
2009-07-08 06:41 51°13.747 2°55.718 5.1 323 16.2 100800 70
2009-07-08 06:42 51°13.836 2°55.636 10.5 322 16.2 100800 70
2009-07-08 06:43 51°13.956 2°55.543 5.7 322 16.1 100800 69
2009-07-08 06:44 51°14.069 2°55.454 6.5 321 16.1 100800 69
2009-07-08 06:45 51°14.181 2°55.354 14.2 316 16.2 100790 70
2009-07-08 06:46 51°14.287 2°55.211 10.3 321 16.1 100780 70
2009-07-08 06:47 51°14.385 2°55.026 12.1 320 16.1 100760 70
2009-07-08 06:48 51°14.494 2°54.84 14.8 35 16.2 100780 70
2009-07-08 06:49 51°14.643 2°54.674 15.6 34 16.3 100780 72
2009-07-08 06:50 51°14.8 2°54.516 15 316 16.2 100770 72
2009-07-08 06:51 51°14.952 2°54.351 15.8 25 16.2 100780 79
2009-07-08 06:52 51°15.102 2°54.187 12.8 315 16.1 100770 83
2009-07-08 06:53 51°15.25 2°54.017 16.6 26 16.1 100770 82
2009-07-08 06:54 51°15.4 2°53.851 13 28 16.1 100780 83
2009-07-08 06:55 51°15.552 2°53.681 12.5 29 16.2 100770 84
2009-07-08 06:56 51°15.702 2°53.508 16.5 22 16.1 100780 84
2009-07-08 06:57 51°15.857 2°53.342 14.6 26 16.1 100780 82
2009-07-08 06:58 51°16.016 2°53.191 17 25 16.2 100800 84
2009-07-08 06:59 51°16.178 2°53.046 13.4 28 16.1 100780 85
2009-07-08 07:00 51°16.344 2°52.916 12.7 26 16.1 100800 83
2009-07-08 07:01 51°16.517 2°52.816 14.4 25 16.1 100790 83
2009-07-08 07:02 51°16.693 2°52.743 13.3 21 16.2 100780 85
2009-07-08 07:03 51°16.869 2°52.687 10.5 21 16.2 100800 85
2009-07-08 07:04 51°17.043 2°52.647 12.7 27 16.2 100790 84
2009-07-08 07:05 51°17.215 2°52.656 11.2 248 16.2 100810 85
2009-07-08 07:06 51°17.35 2°52.811 6.4 260 16.1 100830 86
2009-07-08 07:07 51°17.451 2°53.032 9.7 253 16.2 100820 74
2009-07-08 07:08 51°17.559 2°53.24 9.2 254 16.2 100840 73
2009-07-08 07:09 51°17.671 2°53.436 10.5 254 16.1 100830 85
2009-07-08 07:10 51°17.779 2°53.639 9 260 16.1 100830 86
2009-07-08 07:11 51°17.886 2°53.838 9.8 252 16.2 100830 84
2009-07-08 07:12 51°17.993 2°54.04 7.2 254 16.2 100830 85
2009-07-08 07:13 51°18.09 2°54.253 10.4 259 16.2 100840 84
2009-07-08 07:14 51°18.17 2°54.482 7.9 256 16.2 100840 87
2009-07-08 07:15 51°18.251 2°54.711 8.8 258 16.2 100830 85
2009-07-08 07:16 51°18.345 2°54.926 7.8 260 16.1 100840 85
2009-07-08 07:17 51°18.44 2°55.137 11.5 258 16.1 100840 82
2009-07-08 07:18 51°18.545 2°55.349 6.7 260 16.1 100830 81
2009-07-08 07:19 51°18.64 2°55.553 7.8 260 16.2 100850 85
2009-07-08 07:20 51°18.738 2°55.768 8.1 255 16.1 100840 85
2009-07-08 07:21 51°18.834 2°55.973 8.2 253 16.1 100850 86
2009-07-08 07:22 51°18.934 2°56.188 6.4 262 16.1 100840 86
2009-07-08 07:23 51°19.03 2°56.394 6.5 255 16.2 100850 86
2009-07-08 07:24 51°19.126 2°56.601 8.4 255 16.2 100850 87
2009-07-08 07:25 51°19.222 2°56.811 6.9 259 16.3 100840 85
2009-07-08 07:26 51°19.315 2°57.024 11.2 258 16.2 100850 84
2009-07-08 07:27 51°19.413 2°57.231 5.9 264 16.2 100850 85
2009-07-08 07:28 51°19.51 2°57.44 7.9 258 16.1 100850 84
2009-07-08 07:29 51°19.589 2°57.666 5.6 264 16.2 100850 86
2009-07-08 07:30 51°19.656 2°57.903 7 261 16.3 100850 74
2009-07-08 07:31 51°19.723 2°58.139 5.9 261 16.1 100860 74
2009-07-08 07:32 51°19.788 2°58.373 4.8 263 16.1 100850 74
2009-07-08 07:33 51°19.853 2°58.605 5.1 264 16.1 100850 74
2009-07-08 07:34 51°19.917 2°58.831 6.5 30 15.9 100850 72
2009-07-08 07:35 51°19.986 2°59.065 4.5 268 16 100860 72
2009-07-08 07:36 51°20.053 2°59.295 5.5 259 16 100850 73
2009-07-08 07:37 51°20.122 2°59.522 7 260 16 100860 72
2009-07-08 07:38 51°20.187 2°59.749 5.1 263 16.1 100850 72
2009-07-08 07:39 51°20.254 2°59.977 7.7 261 16.1 100860 73
2009-07-08 07:40 51°20.318 3°0.203 7.1 257 16 100860 72
2009-07-08 07:41 51°20.384 3°0.427 8.1 260 16.1 100860 72
2009-07-08 07:42 51°20.447 3°0.652 6.8 261 16.1 100850 72
2009-07-08 07:43 51°20.51 3°0.877 6.4 260 16 100860 71
2009-07-08 07:44 51°20.574 3°1.1 4.5 264 16 100860 70
2009-07-08 07:45 51°20.637 3°1.325 6.3 263 16.1 100860 71
2009-07-08 07:46 51°20.703 3°1.55 5.1 267 16.2 100860 72
2009-07-08 07:47 51°20.765 3°1.758 5 22 16.1 100860 71
2009-07-08 07:48 51°20.828 3°1.977 5.1 262 16.2 100860 72
2009-07-08 07:49 51°20.89 3°2.189 3.8 264 16.3 100860 85
2009-07-08 07:50 51°20.95 3°2.4 5.3 262 16.2 100860 83
2009-07-08 07:51 51°21.012 3°2.608 6.4 260 16.3 100860 83
2009-07-08 07:52 51°21.07 3°2.814 4.6 264 16.2 100850 82
2009-07-08 07:53 51°21.128 3°3.024 4.7 267 16.2 100860 83
2009-07-08 07:54 51°21.183 3°3.236 5.9 268 16.2 100860 82
2009-07-08 07:55 51°21.238 3°3.438 5.3 19 16.1 100860 72
2009-07-08 07:56 51°21.281 3°3.605 6.4 269 16.1 100860 71
2009-07-08 07:57 51°21.319 3°3.759 7.3 270 16.1 100870 70
2009-07-08 07:58 51°21.358 3°3.914 6.8 269 16.2 100860 72
2009-07-08 07:59 51°21.395 3°4.065 5.5 269 16.1 100870 71
2009-07-08 08:00 51°21.433 3°4.216 5.7 28 16.1 100870 71
2009-07-08 08:01 51°21.469 3°4.366 4.3 18 16.1 100860 71
2009-07-08 08:02 51°21.505 3°4.517 6.6 30 16.2 100870 71
2009-07-08 08:03 51°21.578 3°4.618 9 256 16.1 100860 72
2009-07-08 08:04 51°21.705 3°4.714 12.8 254 16.2 100850 72
2009-07-08 08:05 51°21.819 3°4.888 4.6 264 16.3 100870 72
2009-07-08 08:06 51°21.879 3°5.119 4.7 268 16.3 100870 71
2009-07-08 08:07 51°21.914 3°5.381 4.3 270 16.3 100880 71
2009-07-08 08:08 51°21.95 3°5.634 4.5 28 16.3 100870 71
2009-07-08 08:09 51°21.984 3°5.888 3.1 269 16.2 100870 70
2009-07-08 08:10 51°22.018 3°6.14 6.2 269 16.3 100880 71
2009-07-08 08:11 51°22.056 3°6.394 4.4 266 16.2 100880 71
2009-07-08 08:12 51°22.086 3°6.648 4.4 20 16.2 100870 70
2009-07-08 08:13 51°22.1 3°6.907 4.8 23 16.2 100880 71
2009-07-08 08:14 51°22.116 3°7.165 4.8 23 16.3 100870 73
2009-07-08 08:15 51°22.133 3°7.429 3.6 263 16.3 100870 72
2009-07-08 08:16 51°22.168 3°7.677 6.5 259 16.3 100880 71
2009-07-08 08:17 51°22.236 3°7.902 6.9 268 16.2 100880 72
2009-07-08 08:18 51°22.272 3°8.024 6.3 29 16.2 100880 71
2009-07-08 08:19 51°22.292 3°8.127 7 25 16.2 100890 72
2009-07-08 08:20 51°22.32 3°8.282 6.7 269 16.3 100880 71
2009-07-08 08:21 51°22.362 3°8.502 6 268 16.3 100880 72
2009-07-08 08:22 51°22.404 3°8.753 4.2 270 16.3 100880 71
2009-07-08 08:23 51°22.44 3°9.004 4.5 28 16.3 100880 73
2009-07-08 08:24 51°22.476 3°9.254 6 21 16.4 100880 72
2009-07-08 08:25 51°22.513 3°9.506 3.7 270 16.4 100890 72
2009-07-08 08:26 51°22.552 3°9.754 5.3 266 16.3 100870 72
2009-07-08 08:27 51°22.57 3°10.01 4.8 270 16.3 100880 72
2009-07-08 08:28 51°22.549 3°10.272 4 23 16.2 100880 69
2009-07-08 08:29 51°22.481 3°10.528 3.4 21 16.6 100880 71
2009-07-08 08:30 51°22.415 3°10.784 4.2 27 16.9 100880 69
2009-07-08 08:31 51°22.393 3°11.044 3.3 21 16.7 100880 67
2009-07-08 08:32 51°22.404 3°11.171 7.9 263 16.6 100880 69
2009-07-08 08:33 51°22.428 3°11.191 9.8 263 16.6 100890 70
2009-07-08 08:34 51°22.436 3°11.186 10.2 258 16.5 100890 69
2009-07-08 08:35 51°22.434 3°11.177 12.3 252 16.5 100880 71
2009-07-08 08:36 51°22.426 3°11.169 11.2 256 16.5 100870 69
2009-07-08 08:37 51°22.416 3°11.163 13.1 259 16.5 100890 70
2009-07-08 08:38 51°22.402 3°11.157 6 268 16.4 100880 69
2009-07-08 08:39 51°22.386 3°11.148 7 266 16.4 100880 71
2009-07-08 08:40 51°22.372 3°11.138 8.9 267 16.3 100900 70
2009-07-08 08:41 51°22.357 3°11.131 7.1 265 16.2 100900 71
2009-07-08 08:42 51°22.344 3°11.124 7 262 16 100890 71
2009-07-08 08:43 51°22.331 3°11.118 9.8 257 16 100890 71
2009-07-08 08:44 51°22.354 3°11.127 9.9 24 16 100890 71
2009-07-08 08:45 51°22.466 3°11.145 13.5 24 16 100880 72
2009-07-08 08:46 51°22.609 3°11.115 11.7 26 16 100850 71
2009-07-08 08:47 51°22.774 3°11.031 12.8 25 15.9 100860 71
2009-07-08 08:48 51°22.943 3°10.937 13.3 23 16 100840 71
2009-07-08 08:49 51°23.1 3°10.808 13.4 23 16 100850 72
2009-07-08 08:50 51°23.262 3°10.664 16.9 27 16.1 100850 72
2009-07-08 08:51 51°23.421 3°10.527 11.5 25 16.1 100860 70
2009-07-08 08:52 51°23.555 3°10.418 12.3 22 16.1 100840 71
2009-07-08 08:53 51°23.586 3°10.482 5.9 22 16.1 100900 70
2009-07-08 08:54 51°23.533 3°10.515 9.7 27 16.3 100860 72
2009-07-08 08:55 51°23.478 3°10.465 9.8 358 16.3 100870 72
2009-07-08 08:56 51°23.436 3°10.383 12.7 351 16.3 100870 72
2009-07-08 08:57 51°23.399 3°10.275 12.8 343 16.1 100870 72
2009-07-08 08:58 51°23.391 3°10.157 11.4 327 16.2 100870 73
2009-07-08 08:59 51°23.398 3°10.044 11.3 324 16.1 100870 70
2009-07-08 09:00 51°23.407 3°9.93 12.5 326 16.2 100860 72
2009-07-08 09:01 51°23.418 3°9.825 11.7 323 16.2 100880 71
2009-07-08 09:02 51°23.453 3°9.763 12.1 242 16.2 100850 71
2009-07-08 09:03 51°23.504 3°9.751 10.2 249 16.2 100880 71
2009-07-08 09:04 51°23.551 3°9.78 10.7 259 16.3 100890 72
2009-07-08 09:05 51°23.593 3°9.831 8.1 263 16.4 100900 72
2009-07-08 09:06 51°23.63 3°9.888 9.2 270 16.5 100900 72
2009-07-08 09:07 51°23.653 3°9.964 6.9 269 16.4 100910 72
2009-07-08 09:08 51°23.67 3°10.037 9.6 25 16.3 100910 70
2009-07-08 09:09 51°23.693 3°10.102 9.5 31 16.3 100910 72
2009-07-08 09:10 51°23.716 3°10.17 8.9 26 16.3 100910 71
2009-07-08 09:11 51°23.732 3°10.243 9.4 24 16.4 100910 72
2009-07-08 09:12 51°23.732 3°10.328 8 30 16.3 100920 71
2009-07-08 09:13 51°23.727 3°10.416 10.2 20 16.2 100910 70
2009-07-08 09:14 51°23.736 3°10.496 9.1 29 16.2 100910 71
2009-07-08 09:15 51°23.75 3°10.573 7.2 270 16.3 100910 72
2009-07-08 09:16 51°23.764 3°10.648 7.3 270 16.3 100910 73
2009-07-08 09:17 51°23.782 3°10.723 8.3 267 16.3 100920 70
2009-07-08 09:18 51°23.799 3°10.8 7.6 270 16.3 100920 72
2009-07-08 09:19 51°23.811 3°10.879 8 27 16.4 100910 72
2009-07-08 09:20 51°23.822 3°10.959 8.6 25 16.3 100920 69
2009-07-08 09:21 51°23.833 3°11.037 8.6 26 16.3 100920 72
2009-07-08 09:22 51°23.847 3°11.117 7.8 268 16.3 100930 69
2009-07-08 09:23 51°23.858 3°11.197 9.3 26 16.3 100930 72
2009-07-08 09:24 51°23.87 3°11.279 7.8 24 16.3 100920 72
2009-07-08 09:25 51°23.88 3°11.361 8.7 270 16.3 100930 72
2009-07-08 09:26 51°23.893 3°11.443 9.7 24 16.4 100920 72
2009-07-08 09:27 51°23.905 3°11.531 8 26 16.3 100940 70
2009-07-08 09:28 51°23.89 3°11.619 5.8 23 16.2 100940 69
2009-07-08 09:29 51°23.834 3°11.675 10 33 16.3 100910 70
2009-07-08 09:30 51°23.771 3°11.687 9.4 26 16.2 100900 71
2009-07-08 09:31 51°23.71 3°11.674 10.6 21 16.2 100900 71
2009-07-08 09:32 51°23.651 3°11.637 8.6 6 16.4 100900 73
2009-07-08 09:33 51°23.598 3°11.583 10.9 358 16.4 100910 71
2009-07-08 09:34 51°23.561 3°11.532 9.2 356 16.4 100900 72
2009-07-08 09:35 51°23.533 3°11.496 10.3 358 16.3 100900 72
2009-07-08 09:36 51°23.509 3°11.469 10.3 356 16.4 100890 70
2009-07-08 09:37 51°23.486 3°11.448 9.1 2 16.2 100910 70
2009-07-08 09:38 51°23.461 3°11.429 6.6 6 16.3 100910 73
2009-07-08 09:39 51°23.431 3°11.401 9.8 355 16.4 100900 72
2009-07-08 09:40 51°23.405 3°11.294 12.7 327 16.3 100900 73
2009-07-08 09:41 51°23.442 3°11.192 12.1 320 16.4 100910 71
2009-07-08 09:42 51°23.47 3°11.063 13.1 328 16.4 100920 70
2009-07-08 09:43 51°23.528 3°10.841 14.3 325 16.4 100900 70
2009-07-08 09:44 51°23.605 3°10.577 14.1 329 16.5 100900 74
2009-07-08 09:45 51°23.682 3°10.31 12.4 325 16.6 100930 82
2009-07-08 09:46 51°23.769 3°10.056 15.8 320 16.6 100910 81
2009-07-08 09:47 51°23.918 3°9.95 13.1 21 16.6 100900 83
2009-07-08 09:48 51°24.088 3°9.884 13.6 21 16.5 100900 82
2009-07-08 09:49 51°24.266 3°9.826 12.8 28 16.5 100900 80
2009-07-08 09:50 51°24.426 3°9.748 13 316 16.5 100890 84
2009-07-08 09:51 51°24.565 3°9.611 12.7 324 16.5 100900 83
2009-07-08 09:52 51°24.649 3°9.381 14.5 331 16.5 100900 84
2009-07-08 09:53 51°24.692 3°9.114 13.1 332 16.5 100910 83
2009-07-08 09:54 51°24.737 3°8.848 13.4 332 16.5 100930 84
2009-07-08 09:55 51°24.791 3°8.59 13.4 333 16.4 100920 71
2009-07-08 09:56 51°24.857 3°8.334 13.5 325 16.4 100920 72
2009-07-08 09:57 51°24.94 3°8.103 14.3 328 16.5 100900 72
2009-07-08 09:58 51°25.056 3°7.952 13 40 16.6 100910 71
2009-07-08 09:59 51°25.204 3°7.949 10.9 239 16.5 100930 72
2009-07-08 10:00 51°25.338 3°8.059 8.7 250 16.5 100930 71
2009-07-08 10:01 51°25.454 3°8.225 12.3 249 16.5 100920 72
2009-07-08 10:02 51°25.575 3°8.396 12.3 247 16.5 100940 71
2009-07-08 10:03 51°25.696 3°8.563 9.5 250 16.5 100930 85
2009-07-08 10:04 51°25.796 3°8.769 8.2 245 16.6 100940 85
2009-07-08 10:05 51°25.892 3°8.982 7.9 256 16.6 100950 82
2009-07-08 10:06 51°25.987 3°9.2 9.4 252 16.6 100940 82
2009-07-08 10:07 51°26.084 3°9.416 9 23 16.8 100950 85
2009-07-08 10:08 51°26.181 3°9.637 10.4 253 16.9 100940 72
2009-07-08 10:09 51°26.28 3°9.855 11.7 249 16.8 100940 71
2009-07-08 10:10 51°26.374 3°10.083 6.6 257 16.8 100950 72
2009-07-08 10:11 51°26.449 3°10.335 7.2 254 16.8 100950 71
2009-07-08 10:12 51°26.52 3°10.593 7.5 258 16.7 100950 71
2009-07-08 10:13 51°26.594 3°10.848 9.1 257 16.8 100960 72
2009-07-08 10:14 51°26.666 3°11.104 8.2 250 16.7 100950 71
2009-07-08 10:15 51°26.741 3°11.358 9.3 255 16.8 100950 78
2009-07-08 10:16 51°26.816 3°11.61 4.9 263 16.9 100950 81
2009-07-08 10:17 51°26.891 3°11.867 8.9 252 17 100950 84
2009-07-08 10:18 51°26.961 3°12.126 8.2 259 16.9 100950 81
2009-07-08 10:19 51°27.006 3°12.407 9.3 261 16.9 100950 83
2009-07-08 10:20 51°27.052 3°12.69 5 265 16.8 100950 82
2009-07-08 10:21 51°27.097 3°12.969 6.8 257 16.8 100950 81
2009-07-08 10:22 51°27.147 3°13.248 9 260 16.6 100950 79
2009-07-08 10:23 51°27.199 3°13.53 5.6 262 16.6 100950 81
2009-07-08 10:24 51°27.233 3°13.79 4.8 23 16.6 100960 81
2009-07-08 10:25 51°27.177 3°13.906 7.3 34 16.6 100950 78
2009-07-08 10:26 51°27.11 3°13.92 10.9 19 16.5 100970 81
2009-07-08 10:27 51°27.052 3°13.902 7.7 5 16.5 100950 81
2009-07-08 10:28 51°27.003 3°13.858 10.9 352 16.4 100950 81
2009-07-08 10:29 51°26.964 3°13.785 9.7 344 16.3 100930 80
2009-07-08 10:30 51°26.937 3°13.7 12.5 341 16.3 100930 80
2009-07-08 10:31 51°26.913 3°13.611 11 349 16.3 100920 81
2009-07-08 10:32 51°26.88 3°13.528 11.3 350 16.3 100940 84
2009-07-08 10:33 51°26.847 3°13.44 10.3 342 16.2 100940 82
2009-07-08 10:34 51°26.835 3°13.356 9.6 334 16.4 100950 85
2009-07-08 10:35 51°26.841 3°13.265 10.4 329 16.5 100940 73
2009-07-08 10:36 51°26.85 3°13.19 11.5 327 16.5 100950 70
2009-07-08 10:37 51°26.862 3°13.119 9.1 329 16.5 100950 71
2009-07-08 10:38 51°26.873 3°13.038 9.2 329 16.6 100950 70
2009-07-08 10:39 51°26.875 3°12.95 12.6 336 16.6 100940 69
2009-07-08 10:40 51°26.869 3°12.849 10.4 336 16.5 100940 69
2009-07-08 10:41 51°26.858 3°12.754 11.8 340 16.5 100940 69
2009-07-08 10:42 51°26.845 3°12.679 11.2 338 16.6 100950 69
2009-07-08 10:43 51°26.834 3°12.607 11.4 333 16.7 100940 69
2009-07-08 10:44 51°26.826 3°12.522 11.9 334 16.7 100940 69
2009-07-08 10:45 51°26.82 3°12.429 10.3 334 16.6 100950 67
2009-07-08 10:46 51°26.81 3°12.341 10 340 16.6 100950 69
2009-07-08 10:47 51°26.777 3°12.256 8.6 351 16.6 100950 68
2009-07-08 10:48 51°26.721 3°12.181 11.3 357 16.6 100940 72
2009-07-08 10:49 51°26.646 3°12.128 9.8 7 16.6 100960 73
2009-07-08 10:50 51°26.566 3°12.088 10.8 13 16.5 100970 71
2009-07-08 10:51 51°26.494 3°12.066 10.1 11 16.4 100970 71
2009-07-08 10:52 51°26.433 3°12.057 9.5 18 16.5 100960 72
2009-07-08 10:53 51°26.379 3°12.054 10.2 11 16.6 100970 70
2009-07-08 10:54 51°26.325 3°12.051 9.4 12 16.5 100980 69
2009-07-08 10:55 51°26.269 3°12.046 9.6 9 16.4 100970 70
2009-07-08 10:56 51°26.214 3°12.042 11.1 12 16.5 100970 70
2009-07-08 10:57 51°26.158 3°12.038 10.3 10 16.5 100970 70
2009-07-08 10:58 51°26.103 3°12.033 10.4 13 16.4 100980 69
2009-07-08 10:59 51°26.05 3°12.028 10 13 16.4 100970 69
2009-07-08 11:00 51°25.998 3°12.023 8.7 11 16.4 100970 70
2009-07-08 11:01 51°25.945 3°12.011 9.8 -999 16.3 100970 69
2009-07-08 11:02 51°25.892 3°11.985 9.6 4 16.3 100970 69
2009-07-08 11:03 51°25.85 3°11.978 8.6 9 16.2 100970 70
2009-07-08 11:04 51°25.815 3°11.981 7.1 3 16.3 100970 69
2009-07-08 11:05 51°25.782 3°11.989 7.5 8 16.5 100980 73
2009-07-08 11:06 51°25.752 3°11.942 9.4 331 16.4 100970 69
2009-07-08 11:07 51°25.803 3°11.895 10.7 22 16.4 100960 69
2009-07-08 11:08 51°25.922 3°11.967 13.6 25 16.5 100960 70
2009-07-08 11:09 51°26.07 3°12.1 10.5 247 16.6 100970 71
2009-07-08 11:10 51°26.194 3°12.301 9.3 249 16.7 100990 70
2009-07-08 11:11 51°26.305 3°12.532 11 256 16.7 100990 70
2009-07-08 11:12 51°26.408 3°12.774 8.7 252 16.7 100990 70
2009-07-08 11:13 51°26.509 3°13.022 9.2 258 16.8 101000 69
2009-07-08 11:14 51°26.59 3°13.297 7.3 260 16.8 100990 69
2009-07-08 11:15 51°26.667 3°13.575 10.1 259 16.9 100990 70
2009-07-08 11:16 51°26.745 3°13.851 8.7 261 16.8 100990 70
2009-07-08 11:17 51°26.827 3°14.124 7.7 260 16.8 101000 70
2009-07-08 11:18 51°26.883 3°14.277 8.8 251 16.8 101000 69
2009-07-08 11:19 51°26.903 3°14.323 12.1 258 16.9 100980 70
2009-07-08 11:20 51°26.903 3°14.364 10.6 259 16.7 101000 68
2009-07-08 11:21 51°26.897 3°14.402 10.2 257 16.7 101000 70
2009-07-08 11:22 51°26.885 3°14.438 10.8 253 16.8 101000 71
2009-07-08 11:23 51°26.868 3°14.472 12.3 253 16.7 101000 69
2009-07-08 11:24 51°26.85 3°14.507 9.3 249 16.6 101000 69
2009-07-08 11:25 51°26.83 3°14.541 11.7 251 16.4 101000 69
2009-07-08 11:26 51°26.819 3°14.58 9.6 243 16.5 100990 71
2009-07-08 11:27 51°26.831 3°14.614 10.1 26 16.2 100970 66
2009-07-08 11:28 51°26.879 3°14.631 12.7 315 16.2 100970 67
2009-07-08 11:29 51°26.969 3°14.606 13.6 324 16 100950 64
2009-07-08 11:30 51°27.085 3°14.505 14.7 327 16 100960 64
2009-07-08 11:31 51°27.216 3°14.373 14.7 324 15.9 100970 61
2009-07-08 11:32 51°27.344 3°14.226 14.9 333 16 100990 63
2009-07-08 11:33 51°27.45 3°14.036 14.5 332 15.9 100990 65
2009-07-08 11:34 51°27.551 3°13.85 14.5 330 16 100980 66
2009-07-08 11:35 51°27.659 3°13.66 13.7 329 15.9 100990 66
2009-07-08 11:36 51°27.767 3°13.48 16.2 332 15.8 101000 65
2009-07-08 11:37 51°27.876 3°13.296 15.2 330 15.8 100980 64
2009-07-08 11:38 51°27.986 3°13.11 12.2 332 15.9 100990 67
2009-07-08 11:39 51°28.095 3°12.917 12.4 332 15.8 100990 66
2009-07-08 11:40 51°28.204 3°12.73 14.7 327 16 101000 68
2009-07-08 11:41 51°28.311 3°12.547 13.2 326 16.1 100990 67
2009-07-08 11:42 51°28.42 3°12.365 14.7 325 16.2 101000 68
2009-07-08 11:43 51°28.524 3°12.182 11.5 328 16.1 100980 68
2009-07-08 11:44 51°28.628 3°11.996 13.4 324 16.2 100980 70
2009-07-08 11:45 51°28.726 3°11.8 13.1 326 16.2 100990 68
2009-07-08 11:46 51°28.822 3°11.602 13.3 326 16.2 100980 67
2009-07-08 11:47 51°28.917 3°11.408 15.2 323 16.3 100980 67
2009-07-08 11:48 51°29.014 3°11.216 12.7 321 16.3 100980 67
2009-07-08 11:49 51°29.114 3°11.016 14.7 321 16.5 100980 68
2009-07-08 11:50 51°29.218 3°10.82 16 318 16.5 100970 68
2009-07-08 11:51 51°29.318 3°10.622 14.4 321 16.6 100990 69
2009-07-08 11:52 51°29.414 3°10.429 15.3 323 16.6 100970 68
2009-07-08 11:53 51°29.514 3°10.236 12 321 16.5 100990 69
2009-07-08 11:54 51°29.619 3°10.034 12.6 325 16.6 100980 70
2009-07-08 11:55 51°29.723 3°9.831 13.4 329 16.6 100980 69
2009-07-08 11:56 51°29.827 3°9.624 14 327 16.4 100980 64
2009-07-08 11:57 51°29.932 3°9.42 14.2 333 16.5 100980 66
2009-07-08 11:58 51°30.036 3°9.218 15 326 16.6 100950 66
2009-07-08 11:59 51°30.139 3°9.016 14.2 327 16.6 100990 65
2009-07-08 12:00 51°30.236 3°8.805 14.9 329 16.5 100950 71
2009-07-08 12:01 51°30.336 3°8.593 13.1 327 16.6 100990 65
2009-07-08 12:02 51°30.439 3°8.378 12.5 325 16.6 100970 64
2009-07-08 12:03 51°30.54 3°8.163 13.3 326 16.6 100920 63
2009-07-08 12:04 51°30.64 3°7.955 13.9 326 16.7 100980 65
2009-07-08 12:05 51°30.742 3°7.738 12.2 325 16.7 100980 65
2009-07-08 12:06 51°30.843 3°7.523 14.1 325 16.6 100980 65
2009-07-08 12:07 51°30.944 3°7.308 12.5 327 16.6 101000 65
2009-07-08 12:08 51°31.048 3°7.09 14.2 328 16.6 100970 74
2009-07-08 12:09 51°31.15 3°6.879 13.3 327 16.6 100980 75
2009-07-08 12:10 51°31.254 3°6.665 12.8 327 16.6 100990 78
2009-07-08 12:11 51°31.354 3°6.459 14.7 326 16.6 100990 76
2009-07-08 12:12 51°31.457 3°6.248 14.1 324 16.7 100980 78
2009-07-08 12:13 51°31.559 3°6.033 13.3 328 16.6 101000 77
2009-07-08 12:14 51°31.664 3°5.816 13.9 325 16.5 100990 76
2009-07-08 12:15 51°31.771 3°5.599 13.9 325 16.6 100980 77
2009-07-08 12:16 51°31.879 3°5.382 13.9 324 16.5 100990 77
2009-07-08 12:17 51°31.987 3°5.169 14.3 327 16.7 101000 79
2009-07-08 12:18 51°32.097 3°4.961 12.5 330 16.7 100990 79
2009-07-08 12:19 51°32.209 3°4.756 11.9 322 16.6 100990 79
2009-07-08 12:20 51°32.321 3°4.55 13.4 325 16.6 101000 79
2009-07-08 12:21 51°32.427 3°4.342 13.8 323 16.5 100980 79
2009-07-08 12:22 51°32.531 3°4.142 15 322 16.5 100980 81
2009-07-08 12:23 51°32.633 3°3.951 13.9 324 16.6 100990 82
2009-07-08 12:24 51°32.741 3°3.747 12.6 328 16.6 101000 82
2009-07-08 12:25 51°32.847 3°3.548 13.9 324 16.5 100990 79
2009-07-08 12:26 51°32.952 3°3.347 13.3 324 16.5 101010 81
2009-07-08 12:27 51°33.057 3°3.149 15.4 325 16.5 100990 78
2009-07-08 12:28 51°33.162 3°2.949 13.6 324 16.5 101010 71
2009-07-08 12:29 51°33.269 3°2.748 13.4 321 16.4 101000 70
2009-07-08 12:30 51°33.376 3°2.547 12.9 326 16.5 100990 69
2009-07-08 12:31 51°33.485 3°2.341 16.5 325 16.4 100990 70
2009-07-08 12:32 51°33.593 3°2.142 14.6 324 16.4 101000 75
2009-07-08 12:33 51°33.699 3°1.944 14.1 323 16.5 101000 79
2009-07-08 12:34 51°33.806 3°1.742 13.7 320 16.5 101020 80
2009-07-08 12:35 51°33.916 3°1.533 15.6 328 16.5 100990 79
2009-07-08 12:36 51°34.023 3°1.326 13.4 324 16.4 100990 76
2009-07-08 12:37 51°34.124 3°1.13 12.9 325 16.4 100990 73
2009-07-08 12:38 51°34.233 3°0.922 12.4 324 16.5 100990 78
2009-07-08 12:39 51°34.335 3°0.724 11.8 323 16.6 100990 80
2009-07-08 12:40 51°34.443 3°0.524 13 324 16.5 101000 76
2009-07-08 12:41 51°34.574 3°0.357 16.3 321 16.6 100990 79
2009-07-08 12:42 51°34.673 3°0.242 12 328 16.5 100980 78
2009-07-08 12:43 51°34.676 3°0.189 11.7 356 16.5 101000 78
2009-07-08 12:44 51°34.644 3°0.158 10.7 359 16.5 101010 81
2009-07-08 12:45 51°34.619 3°0.097 12 341 16.4 101010 79
2009-07-08 12:46 51°34.625 3°0.021 9.3 335 16.4 101010 79
2009-07-08 12:47 51°34.655 2°59.95 9.3 324 16.5 101020 80
2009-07-08 12:48 51°34.696 2°59.886 9.6 322 16.6 101010 79
2009-07-08 12:49 51°34.748 2°59.829 10.1 25 16.5 101010 78
2009-07-08 12:50 51°34.796 2°59.797 11.8 323 16.5 101010 76
2009-07-08 12:51 51°34.835 2°59.751 11.5 320 16.6 101000 77
2009-07-08 12:52 51°34.883 2°59.713 12.1 22 16.5 101010 76
2009-07-08 12:53 51°34.94 2°59.705 9.9 30 16.6 101000 77
2009-07-08 12:54 51°35.002 2°59.742 11.9 259 16.6 101000 78
2009-07-08 12:55 51°35.059 2°59.808 10.7 260 16.7 101020 78
2009-07-08 12:56 51°35.108 2°59.89 8.3 270 16.7 101040 77
2009-07-08 12:57 51°35.137 2°60 6.2 27 16.7 101030 78
2009-07-08 12:58 51°35.133 3°0.114 6 28 16.6 101020 79
2009-07-08 12:59 51°35.098 3°0.204 8 36 16.7 101010 80
2009-07-08 13:00 51°35.057 3°0.28 8.7 36 16.6 101000 79
2009-07-08 13:01 51°35.016 3°0.357 7.6 33 16.5 101010 79
2009-07-08 13:02 51°34.976 3°0.432 7.7 37 16.5 101020 79
2009-07-08 13:03 51°34.941 3°0.507 7.6 39 16.6 101020 82
2009-07-08 13:04 51°34.908 3°0.58 7.9 38 16.5 101010 71
2009-07-08 13:05 51°34.876 3°0.656 7.4 38 16.5 101010 71
2009-07-08 13:06 51°34.844 3°0.73 8.3 35 16.5 101010 71
2009-07-08 13:07 51°34.813 3°0.807 7.9 35 16.4 101000 69
2009-07-08 13:08 51°34.781 3°0.885 8 38 16.4 101020 68
2009-07-08 13:09 51°34.748 3°0.963 6.6 39 16.4 101010 67
2009-07-08 13:10 51°34.716 3°1.04 6.5 37 16.5 101030 68
2009-07-08 13:11 51°34.685 3°1.118 7.6 36 16.6 101020 70
2009-07-08 13:12 51°34.653 3°1.194 8.3 35 16.5 101020 68
2009-07-08 13:13 51°34.62 3°1.272 8.2 38 16.5 101030 69
2009-07-08 13:14 51°34.589 3°1.349 7.6 39 16.5 101020 68
2009-07-08 13:15 51°34.557 3°1.427 7.2 42 16.6 101020 69
2009-07-08 13:16 51°34.526 3°1.504 7.4 44 16.5 101030 67
2009-07-08 13:17 51°34.494 3°1.581 6.6 39 16.5 101020 67
2009-07-08 13:18 51°34.462 3°1.654 7.3 27 16.5 101020 67
2009-07-08 13:19 51°34.425 3°1.703 8.3 30 16.6 101030 67
2009-07-08 13:20 51°34.389 3°1.745 8.5 29 16.6 101020 67
2009-07-08 13:21 51°34.353 3°1.789 8 27 16.7 101020 69
2009-07-08 13:22 51°34.318 3°1.826 7.9 25 16.8 101020 69
2009-07-08 13:23 51°34.282 3°1.855 9 16 16.8 101020 68
2009-07-08 13:24 51°34.244 3°1.859 10 10 16.7 101020 67
2009-07-08 13:25 51°34.225 3°1.871 9.1 12 16.7 101030 66
2009-07-08 13:26 51°34.214 3°1.887 8.4 2 16.7 101040 67
2009-07-08 13:27 51°34.211 3°1.848 10.7 330 16.6 101040 67
2009-07-08 13:28 51°34.253 3°1.69 15.3 335 16.6 101030 66
2009-07-08 13:29 51°34.302 3°1.446 14.6 332 16.7 101030 67
2009-07-08 13:30 51°34.355 3°1.193 14.3 336 16.8 101020 65
2009-07-08 13:31 51°34.409 3°0.944 13.6 333 16.8 101030 66
2009-07-08 13:32 51°34.462 3°0.693 12.8 333 16.8 101020 66
2009-07-08 13:33 51°34.52 3°0.444 14.5 332 16.8 101030 66
2009-07-08 13:34 51°34.586 3°0.329 9.5 24 16.8 101030 65
2009-07-08 13:35 51°34.624 3°0.354 10.7 247 16.9 101040 65
2009-07-08 13:36 51°34.649 3°0.398 8.8 24 17 101050 67
2009-07-08 13:37 51°34.666 3°0.444 8.7 21 17 101050 66
2009-07-08 13:38 51°34.678 3°0.488 7.9 260 17.1 101050 66
2009-07-08 13:39 51°34.686 3°0.531 7.3 261 17.2 101050 66
2009-07-08 13:40 51°34.695 3°0.572 5.6 262 17.2 101060 66
2009-07-08 13:41 51°34.704 3°0.614 7.9 261 17.2 101050 66
2009-07-08 13:42 51°34.71 3°0.655 5.7 262 17.2 101050 66
2009-07-08 13:43 51°34.717 3°0.693 4.9 264 17.2 101060 66
2009-07-08 13:44 51°34.727 3°0.736 8.2 257 17.1 101060 64
2009-07-08 13:45 51°34.743 3°0.784 6.4 29 17.1 101060 66
2009-07-08 13:46 51°34.795 3°0.807 8 345 17 101040 67
2009-07-08 13:47 51°34.788 3°0.753 6.5 23 16.7 101050 68
2009-07-08 13:48 51°34.69 3°0.713 6.2 14 16.4 101050 67
2009-07-08 13:49 51°34.553 3°0.623 7.3 14 16.3 101060 71
2009-07-08 13:50 51°34.407 3°0.516 5.2 19 16.2 101060 71
2009-07-08 13:51 51°34.257 3°0.418 4.8 21 16.1 101060 71
2009-07-08 13:52 51°34.106 3°0.316 5.2 15 16.1 101050 70
2009-07-08 13:53 51°33.957 3°0.207 3.9 24 16 101060 81
2009-07-08 13:54 51°33.806 3°0.108 6.1 18 16 101070 83
2009-07-08 13:55 51°33.657 3°0.005 5.4 19 16.1 101070 84
2009-07-08 13:56 51°33.504 2°59.908 7.3 11 16.1 101060 85
2009-07-08 13:57 51°33.349 2°59.812 7.6 9 16 101060 84
2009-07-08 13:58 51°33.19 2°59.72 4.9 4 16 101070 85
2009-07-08 13:59 51°33.03 2°59.639 5.7 4 15.9 101070 84
2009-07-08 14:00 51°32.869 2°59.541 8.1 358 15.9 101060 85
2009-07-08 14:01 51°32.718 2°59.43 10.7 357 16.1 101050 84
2009-07-08 14:02 51°32.571 2°59.301 10.3 357 16.2 101060 80
2009-07-08 14:03 51°32.432 2°59.169 10.3 356 16.3 101050 77
2009-07-08 14:04 51°32.296 2°59.027 9.8 351 16.3 101060 77
2009-07-08 14:05 51°32.162 2°58.887 11.6 355 16.4 101060 75
2009-07-08 14:06 51°32.028 2°58.743 13.2 352 16.4 101060 75
2009-07-08 14:07 51°31.893 2°58.596 10.6 355 16.4 101050 73
2009-07-08 14:08 51°31.761 2°58.457 11.5 355 16.5 101050 76
2009-07-08 14:09 51°31.632 2°58.305 12.1 351 16.5 101050 74
2009-07-08 14:10 51°31.509 2°58.147 12.4 353 16.5 101050 74
2009-07-08 14:11 51°31.382 2°57.986 10.9 353 16.6 101050 74
2009-07-08 14:12 51°31.259 2°57.83 10.5 354 16.6 101040 74
2009-07-08 14:13 51°31.135 2°57.67 9.6 348 16.5 101060 74
2009-07-08 14:14 51°31.007 2°57.511 10.8 351 16.6 101040 74
2009-07-08 14:15 51°30.884 2°57.357 12.3 351 16.6 101040 74
2009-07-08 14:16 51°30.756 2°57.2 11.1 350 16.6 101050 74
2009-07-08 14:17 51°30.632 2°57.041 12.2 355 16.6 101050 74
2009-07-08 14:18 51°30.504 2°56.875 12.2 349 16.7 101050 74
2009-07-08 14:19 51°30.379 2°56.717 10.3 350 16.6 101060 73
2009-07-08 14:20 51°30.252 2°56.56 10.7 353 16.7 101060 72
2009-07-08 14:21 51°30.127 2°56.4 10.8 348 16.7 101060 73
2009-07-08 14:22 51°30 2°56.242 13.2 353 16.7 101060 72
2009-07-08 14:23 51°29.876 2°56.078 10.6 351 16.7 101060 72
2009-07-08 14:24 51°29.756 2°55.923 11.4 354 16.7 101070 72
2009-07-08 14:25 51°29.636 2°55.762 11.2 349 16.7 101060 72
2009-07-08 14:26 51°29.514 2°55.603 12.5 353 16.7 101060 70
2009-07-08 14:27 51°29.396 2°55.441 10.8 353 16.8 101060 71
2009-07-08 14:28 51°29.277 2°55.28 11 355 16.7 101060 70
2009-07-08 14:29 51°29.157 2°55.114 11.4 353 16.7 101060 71
2009-07-08 14:30 51°29.038 2°54.954 10.1 347 16.8 101060 71
2009-07-08 14:31 51°28.914 2°54.796 11.9 355 16.7 101060 70
2009-07-08 14:32 51°28.791 2°54.63 9.3 349 16.7 101060 71
2009-07-08 14:33 51°28.673 2°54.461 11 349 16.7 101060 72
2009-07-08 14:34 51°28.552 2°54.286 10.4 348 16.8 101070 72
2009-07-08 14:35 51°28.433 2°54.118 10.8 350 16.8 101070 74
2009-07-08 14:36 51°28.312 2°53.946 10 346 16.8 101070 74
2009-07-08 14:37 51°28.191 2°53.773 11 349 16.8 101070 74
2009-07-08 14:38 51°28.077 2°53.597 12.6 348 16.7 101070 72
2009-07-08 14:39 51°27.961 2°53.411 13.2 347 16.8 101060 75
2009-07-08 14:40 51°27.851 2°53.232 11 343 16.8 101070 74
2009-07-08 14:41 51°27.733 2°53.046 11.1 344 16.8 101060 76
2009-07-08 14:42 51°27.619 2°52.87 14.9 346 16.8 101060 77
2009-07-08 14:43 51°27.507 2°52.69 14.4 347 16.7 101060 76
2009-07-08 14:44 51°27.393 2°52.512 13.7 346 16.7 101060 75
2009-07-08 14:45 51°27.28 2°52.341 13.4 343 16.8 101070 77
2009-07-08 14:46 51°27.169 2°52.172 13.7 346 16.8 101060 76
2009-07-08 14:47 51°27.06 2°52 13.5 345 16.8 101060 75
2009-07-08 14:48 51°26.948 2°51.83 12.9 343 16.8 101070 75
2009-07-08 14:49 51°26.834 2°51.661 15.5 348 16.8 101060 75
2009-07-08 14:50 51°26.72 2°51.489 13.6 346 16.8 101080 74
2009-07-08 14:51 51°26.607 2°51.318 11.9 350 16.7 101070 71
2009-07-08 14:52 51°26.493 2°51.145 14.8 345 16.8 101070 73
2009-07-08 14:53 51°26.391 2°50.965 12.8 347 16.8 101070 71
2009-07-08 14:54 51°26.286 2°50.774 14.1 343 16.8 101080 73
2009-07-08 14:55 51°26.184 2°50.591 11.8 346 16.8 101070 70
2009-07-08 14:56 51°26.083 2°50.405 13.4 345 16.9 101080 72
2009-07-08 14:57 51°25.978 2°50.22 12.8 347 16.9 101080 72
2009-07-08 14:58 51°25.876 2°50.035 11.5 344 16.9 101080 73
2009-07-08 14:59 51°25.79 2°49.897 10.4 1 16.9 101070 73
2009-07-08 15:00 51°25.735 2°49.887 6.3 5 17 101090 75
2009-07-08 15:01 51°25.697 2°49.903 7.1 7 16.9 101080 74
2009-07-08 15:02 51°25.643 2°49.899 9.8 355 16.9 101090 76
2009-07-08 15:03 51°25.594 2°49.842 10.5 349 16.9 101080 76
2009-07-08 15:04 51°25.554 2°49.784 8.9 351 16.8 101080 75
2009-07-08 15:05 51°25.526 2°49.718 9.6 344 16.9 101090 77
2009-07-08 15:06 51°25.492 2°49.635 10.2 346 16.8 101100 71
2009-07-08 15:07 51°25.467 2°49.55 8.8 340 16.8 101100 74
2009-07-08 15:08 51°25.456 2°49.479 9.4 338 16.9 101100 74
2009-07-08 15:09 51°25.433 2°49.417 10.5 350 16.9 101100 73
2009-07-08 15:10 51°25.398 2°49.353 10.5 346 16.9 101100 76
2009-07-08 15:11 51°25.357 2°49.294 10.5 349 16.8 101080 75
2009-07-08 15:12 51°25.317 2°49.243 9.6 352 16.8 101100 75
2009-07-08 15:13 51°25.282 2°49.184 9.3 348 16.8 101100 77
2009-07-08 15:14 51°25.253 2°49.12 10.1 344 16.8 101100 78
2009-07-08 15:15 51°25.223 2°49.057 8.9 350 16.8 101090 77
2009-07-08 15:16 51°25.193 2°48.996 11.7 350 16.8 101110 77
2009-07-08 15:17 51°25.153 2°48.946 9.9 353 16.8 101090 76
2009-07-08 15:18 51°25.116 2°48.89 8.9 349 16.8 101100 79
2009-07-08 15:19 51°25.08 2°48.83 9.9 349 16.8 101100 80
2009-07-08 15:20 51°25.046 2°48.771 10.4 347 16.8 101100 80
2009-07-08 15:21 51°25.01 2°48.708 10.8 350 16.8 101100 79
2009-07-08 15:22 51°24.981 2°48.64 10.6 346 16.9 101110 85
2009-07-08 15:23 51°24.966 2°48.56 7.9 348 16.4 101110 82
2009-07-08 15:24 51°24.956 2°48.469 11 13 16 101110 84
2009-07-08 15:25 51°24.942 2°48.375 11.3 14 15.8 101130 85
2009-07-08 15:26 51°24.926 2°48.288 8.2 22 15.5 101140 87
2009-07-08 15:27 51°24.899 2°48.212 6.7 34 15.4 101140 92
2009-07-08 15:28 51°24.858 2°48.156 5.1 33 14.9 101150 91
2009-07-08 15:29 51°24.809 2°48.11 6.2 24 14.9 101150 95
2009-07-08 15:30 51°24.76 2°48.065 6.3 27 14.6 101150 94
2009-07-08 15:31 51°24.712 2°48.017 4.4 29 14.3 101160 92
2009-07-08 15:32 51°24.664 2°47.969 4.2 27 14 101140 91
2009-07-08 15:33 51°24.615 2°47.921 3.1 35 13.8 101150 92
2009-07-08 15:34 51°24.567 2°47.873 3.4 33 13.9 101150 94
2009-07-08 15:35 51°24.517 2°47.827 3.7 27 14.1 101150 95
2009-07-08 15:36 51°24.478 2°47.778 4.7 14 14.3 101150 96
2009-07-08 15:37 51°24.447 2°47.726 6.6 14 14.3 101150 95
2009-07-08 15:38 51°24.423 2°47.655 5.5 5 14.2 101150 94
2009-07-08 15:39 51°24.409 2°47.573 5.5 1 14.3 101140 93
2009-07-08 15:40 51°24.414 2°47.488 5.7 352 14.3 101150 94
2009-07-08 15:41 51°24.449 2°47.417 7.5 342 14.6 101140 95
2009-07-08 15:42 51°24.487 2°47.394 6.2 333 14.5 101160 94
2009-07-08 15:43 51°24.517 2°47.402 5.6 322 14.3 101150 93
2009-07-08 15:44 51°24.566 2°47.464 7.5 20 14.4 101160 94
2009-07-08 15:45 51°24.662 2°47.657 9 26 14.3 101150 92
2009-07-08 15:46 51°24.775 2°47.92 9 24 14.3 101150 94
2009-07-08 15:47 51°24.868 2°48.203 8 25 14.3 101150 92
2009-07-08 15:48 51°24.936 2°48.407 7.5 24 14.3 101150 92
2009-07-08 15:49 51°24.969 2°48.478 6.2 245 14.4 101150 92
2009-07-08 15:50 51°24.98 2°48.52 5.8 23 14.4 101160 91
2009-07-08 15:51 51°24.989 2°48.551 4.4 26 14.4 101160 92
2009-07-08 15:52 51°24.996 2°48.574 5 250 14.3 101160 93
2009-07-08 15:53 51°25.002 2°48.587 3.2 22 14.3 101160 91
2009-07-08 15:54 51°25.006 2°48.598 2.7 263 14.4 101170 90
2009-07-08 15:55 51°25.013 2°48.607 3.3 267 14.3 101160 80
2009-07-08 15:56 51°25.022 2°48.617 3 268 14.2 101160 79
2009-07-08 15:57 51°25.025 2°48.642 3 24 14.3 101160 79
2009-07-08 15:58 51°24.967 2°48.655 2.8 11 14.4 101160 79
2009-07-08 15:59 51°24.92 2°48.496 5.5 2 14.2 101140 76
2009-07-08 16:00 51°24.84 2°48.272 5.4 355 14.2 101160 78
2009-07-08 16:01 51°24.747 2°48.031 6.3 349 14.4 101160 77
2009-07-08 16:02 51°24.651 2°47.792 5 346 14.4 101160 75
2009-07-08 16:03 51°24.54 2°47.573 4.7 353 14.5 101170 77
2009-07-08 16:04 51°24.422 2°47.357 5.3 354 14.6 101170 77
2009-07-08 16:05 51°24.306 2°47.14 5.6 344 14.6 101180 77
2009-07-08 16:06 51°24.193 2°46.923 4.7 345 14.6 101170 77
2009-07-08 16:07 51°24.079 2°46.707 4.9 341 14.5 101160 77
2009-07-08 16:08 51°23.964 2°46.488 4.5 345 14.5 101180 76
2009-07-08 16:09 51°23.848 2°46.267 6.5 352 14.6 101180 75
2009-07-08 16:10 51°23.732 2°46.043 5.2 349 14.6 101180 74
2009-07-08 16:11 51°23.616 2°45.823 5.8 352 14.6 101180 74
2009-07-08 16:12 51°23.501 2°45.603 5.2 360 14.5 101170 75
2009-07-08 16:13 51°23.385 2°45.378 5.7 358 14.6 101180 76
2009-07-08 16:14 51°23.302 2°45.122 6.3 358 14.6 101160 74
2009-07-08 16:15 51°23.244 2°44.842 7.1 354 14.7 101180 75
2009-07-08 16:16 51°23.188 2°44.566 5.9 354 14.7 101180 73
2009-07-08 16:17 51°23.128 2°44.281 7.1 352 14.7 101180 76
2009-07-08 16:18 51°23.068 2°44.001 5.8 356 14.7 101180 75
2009-07-08 16:19 51°23.006 2°43.721 4.9 348 14.8 101180 74
2009-07-08 16:20 51°22.942 2°43.448 5.6 351 14.8 101180 74
2009-07-08 16:21 51°22.875 2°43.176 6.5 351 14.8 101190 75
2009-07-08 16:22 51°22.802 2°42.902 6.7 355 14.8 101190 73
2009-07-08 16:23 51°22.733 2°42.637 5.2 353 14.8 101190 75
2009-07-08 16:24 51°22.676 2°42.416 4.6 360 14.8 101190 73
2009-07-08 16:25 51°22.623 2°42.24 3.9 2 14.8 101200 73
2009-07-08 16:26 51°22.547 2°42.169 0.3 21 14.8 101190 74
2009-07-08 16:27 51°22.44 2°42.188 0.8 251 14.8 101200 74
2009-07-08 16:28 51°22.29 2°42.268 3.4 317 14.9 101200 75
2009-07-08 16:29 51°22.137 2°42.426 4.2 25 14.9 101200 74
2009-07-08 16:30 51°22.004 2°42.63 4.6 22 14.9 101200 73
2009-07-08 16:31 51°21.873 2°42.838 5.4 24 14.8 101190 73
2009-07-08 16:32 51°21.746 2°43.053 4.5 22 14.8 101190 75
2009-07-08 16:33 51°21.62 2°43.272 4.4 24 14.8 101200 73
2009-07-08 16:34 51°21.496 2°43.493 5.4 316 14.8 101200 75
2009-07-08 16:35 51°21.383 2°43.722 5.3 20 14.8 101190 73
2009-07-08 16:36 51°21.269 2°43.957 6 21 14.8 101190 74
2009-07-08 16:37 51°21.158 2°44.193 3.9 317 14.8 101210 74
2009-07-08 16:38 51°21.047 2°44.431 4.2 19 14.8 101200 74
2009-07-08 16:39 51°20.935 2°44.666 5.4 25 14.8 101200 73
2009-07-08 16:40 51°20.819 2°44.911 5.7 25 14.8 101200 73
2009-07-08 16:41 51°20.715 2°45.155 4.8 25 14.8 101210 75
2009-07-08 16:42 51°20.609 2°45.399 4.5 20 14.8 101210 75
2009-07-08 16:43 51°20.503 2°45.643 4.7 28 14.8 101200 73
2009-07-08 16:44 51°20.398 2°45.88 5.5 23 14.8 101200 76
2009-07-08 16:45 51°20.289 2°46.122 5 20 14.8 101200 74
2009-07-08 16:46 51°20.185 2°46.361 5.2 27 14.8 101200 76
2009-07-08 16:47 51°20.078 2°46.599 3.9 23 14.8 101210 74
2009-07-08 16:48 51°19.97 2°46.839 6.3 28 14.8 101220 74
2009-07-08 16:49 51°19.857 2°47.079 4.9 26 14.8 101210 75
2009-07-08 16:50 51°19.743 2°47.325 4 21 14.9 101210 74
2009-07-08 16:51 51°19.638 2°47.571 4.7 22 14.9 101220 75
2009-07-08 16:52 51°19.534 2°47.808 4.2 29 14.8 101210 74
2009-07-08 16:53 51°19.425 2°48.043 4.9 25 14.8 101200 74
2009-07-08 16:54 51°19.32 2°48.28 4.3 22 14.9 101200 74
2009-07-08 16:55 51°19.211 2°48.519 3.6 319 14.9 101210 74
2009-07-08 16:56 51°19.1 2°48.749 3.9 316 14.8 101210 73
2009-07-08 16:57 51°18.993 2°48.978 4.1 28 14.8 101210 74
2009-07-08 16:58 51°18.883 2°49.208 6.2 26 14.9 101210 76
2009-07-08 16:59 51°18.775 2°49.431 4.7 27 14.8 101220 75
2009-07-08 17:00 51°18.665 2°49.662 3.9 318 14.8 101220 75
2009-07-08 17:01 51°18.552 2°49.895 5.5 23 14.9 101220 74
2009-07-08 17:02 51°18.441 2°50.127 3.3 317 14.9 101220 75
2009-07-08 17:03 51°18.33 2°50.358 4.6 27 14.9 101220 75
2009-07-08 17:04 51°18.218 2°50.593 4.4 317 14.9 101220 75
2009-07-08 17:05 51°18.108 2°50.832 4.9 22 14.8 101210 75
2009-07-08 17:06 51°17.999 2°51.058 3.9 323 14.9 101220 76
2009-07-08 17:07 51°17.891 2°51.288 5.2 320 14.9 101220 76
2009-07-08 17:08 51°17.779 2°51.515 3.5 322 14.9 101220 76
2009-07-08 17:09 51°17.654 2°51.717 5 325 14.9 101220 75
2009-07-08 17:10 51°17.513 2°51.905 4.7 329 14.9 101230 75
2009-07-08 17:11 51°17.363 2°52.08 4.5 327 14.9 101220 74
2009-07-08 17:12 51°17.194 2°52.202 4 330 14.8 101230 73
2009-07-08 17:13 51°17.021 2°52.314 4.7 340 14.8 101230 75
2009-07-08 17:14 51°16.854 2°52.425 4.3 334 14.8 101230 73
2009-07-08 17:15 51°16.681 2°52.54 4.6 333 14.8 101230 74
2009-07-08 17:16 51°16.511 2°52.658 3.8 329 14.8 101230 75
2009-07-08 17:17 51°16.342 2°52.772 3.9 328 14.7 101230 74
2009-07-08 17:18 51°16.165 2°52.891 4.3 327 14.7 101230 74
2009-07-08 17:19 51°15.992 2°53.01 4.1 334 14.7 101230 75
2009-07-08 17:20 51°15.816 2°53.121 4.4 331 14.7 101230 76
2009-07-08 17:21 51°15.642 2°53.241 5 332 14.8 101230 75
2009-07-08 17:22 51°15.471 2°53.384 3.5 334 14.8 101240 75
2009-07-08 17:23 51°15.311 2°53.542 4.5 326 14.7 101240 75
2009-07-08 17:24 51°15.156 2°53.704 3.8 334 14.7 101250 74
2009-07-08 17:25 51°15.004 2°53.867 4.6 328 14.7 101240 75
2009-07-08 17:26 51°14.871 2°54.053 4.6 324 14.7 101240 75
2009-07-08 17:27 51°14.755 2°54.271 3.5 327 14.7 101240 92
2009-07-08 17:28 51°14.643 2°54.487 4.3 325 14.7 101240 92
2009-07-08 17:29 51°14.529 2°54.703 4.9 324 14.7 101240 92
2009-07-08 17:30 51°14.421 2°54.92 3.6 332 14.7 101240 92
2009-07-08 17:31 51°14.313 2°55.153 6.3 325 14.8 101240 93
2009-07-08 17:32 51°14.208 2°55.328 2.5 25 14.8 101240 93
2009-07-08 17:33 51°14.105 2°55.423 2.3 322 14.8 101240 93
2009-07-08 17:34 51°13.99 2°55.508 2.6 329 14.7 101250 93
2009-07-08 17:35 51°13.867 2°55.597 3.1 328 14.7 101240 94
2009-07-08 17:36 51°13.751 2°55.723 3 330 14.8 101250 94
2009-07-08 17:37 51°13.696 2°55.833 1 335 14.8 101250 93
2009-07-08 17:38 51°13.67 2°55.926 1.8 318 14.8 101250 92
2009-07-08 17:39 51°13.662 2°55.957 1.3 27 14.9 101250 93